[[{"header":{"parameterUnit":"m.s-1","parameterCategory":1,"la1":30.2992,"la2":30.254,"lo1":-89.0895,"lo2":-89.0443,"dy":0.0025,"dx":0.0025,"nx":19,"ny":19,"refTime":"2026-04-08T21:00:00:Z","depth":0,"parameterNumber":2,"parameterNumberName":"U-component_of_WINDS"},"data":[0,0,0,-6.2089,-6.2091,-6.219,-6.219,-6.2344,-6.2346,0,0,0,0,0,0,0,0,0,0,0,-6.2076,-6.2078,-6.2089,-6.2092,-6.219,-6.219,-6.2344,-6.2346,0,0,0,0,0,0,0,0,0,0,0,-6.2075,-6.2077,-6.2079,-6.2092,-6.219,-6.219,-6.2343,-6.2259,0,0,0,0,0,0,0,0,0,0,-6.2158,-6.2163,-6.2077,-6.2079,-6.2093,-6.219,-6.219,-6.2255,-6.2264,-6.2311,0,-6.2357,0,-6.2354,-6.2358,-6.2358,0,0,0,-6.2079,-6.2155,-6.2167,-6.208,-6.2094,-6.219,-6.2142,-6.226,-6.2271,-6.2324,-6.2359,-6.2364,-6.2357,-6.2359,-6.236,-6.2672,-6.2674,0,0,-6.2074,-6.2103,-6.2159,-6.2175,-6.2161,-6.2139,-6.2145,-6.2266,-6.2306,-6.2359,-6.2367,-6.2359,-6.236,-6.2361,-6.267,-6.2672,0,0,0,-6.2066,-6.2099,-6.2107,-6.2169,-6.2185,-6.2142,-6.2149,-6.23,-6.23,-6.2368,-6.2361,-6.2361,-6.2363,-6.2667,-6.267,-6.2799,0,0,0,-6.2062,-6.2095,-6.2106,-6.2125,-6.2183,-6.2244,-6.2182,-6.2292,-6.2305,-6.236,-6.2361,-6.2365,-6.2665,-6.2669,-6.279,-6.2854,0,0,0,-6.2064,-6.2095,-6.2115,-6.2126,-6.2169,-6.2241,-6.2248,-6.2294,-6.2301,-6.2358,-6.2365,-6.2663,-6.2668,-6.2783,-6.2842,-6.2944,0,0,0,-6.2074,-6.2227,-6.2118,-6.2287,-6.2169,-6.2321,-6.2247,-6.2358,-6.2423,-6.2362,-6.2665,-6.267,-6.2781,-6.2834,-6.2936,-6.3035,-6.3079,0,0,-6.2284,-6.2254,-6.2351,-6.2255,-6.2434,-6.2303,-6.2501,-6.2532,-6.2511,-6.2619,-6.2626,-6.2793,-6.2841,-6.2943,-6.3318,-6.3353,0,0,0,-6.2427,-6.2497,-6.2538,-6.2602,-6.2631,-6.266,-6.2659,-6.2671,-6.2761,-6.2573,-6.2858,-6.2885,-6.2944,-6.2989,-6.3019,-6.3067,-6.2693,-6.2692,-6.2692,-6.2764,-6.273,-6.2889,-6.2867,-6.293,-6.2928,-6.2975,-6.2991,-6.2938,-6.3006,-6.3037,-6.3269,-6.3324,-6.3346,-6.3397,-6.3088,-6.3088,-6.3089,-6.3089,-6.3067,-6.316,-6.3088,-6.3216,-6.3179,-6.3286,-6.3291,-6.325,-6.3344,-6.3243,-6.3292,-6.3183,-6.3386,-6.3428,-6.3098,-6.3097,-6.3096,-6.3095,-6.3094,-6.3282,-6.3321,-6.3334,-6.3423,-6.3496,-6.347,-6.3564,-6.3528,-6.3494,-6.3543,-6.3572,-6.357,-6.3562,-6.356,-6.3561,-6.3562,-6.3563,-6.3563,-6.3564,-6.3499,-6.351,-6.3594,-6.364,-6.3676,-6.372,-6.3722,-6.3757,-6.3786,-6.3752,-6.3752,-6.3692,-6.3413,-6.3342,-6.3576,-6.3574,-6.3572,-6.3571,-6.357,-6.3816,-6.3739,-6.3869,-6.3906,-6.3957,-6.4032,-6.3985,-6.4061,-6.4084,-6.4132,-6.4063,-6.3863,-6.3829,-6.3805,-6.3746,-6.407,-6.407,-6.407,-6.407,-6.3996,-6.3976,-6.4101,-6.4163,-6.4219,-6.4191,-6.434,-6.4344,-6.4336,-6.4349,-6.4297,-6.4217,-6.4194,-6.4174,-6.4142,-6.4086,-6.4489,-6.449,-6.449,-6.4188,-6.4173,-6.4305,-6.4297,-6.4335,-6.4368,-6.4506,-6.4581,-6.4556,-6.4506,-6.4358,-6.434,-6.421,-6.417,-6.4114,-6.4065,-6.3963,0,0]},{"header":{"parameterUnit":"m.s-1","parameterCategory":1,"la1":30.2992,"la2":30.254,"lo1":-89.0895,"lo2":-89.0443,"dy":0.0025,"dx":0.0025,"nx":19,"ny":19,"refTime":"2026-04-08T21:00:00:Z","depth":0,"parameterNumber":3,"parameterNumberName":"V-component_of_WINDS"},"data":[0,0,0,1.1678,1.1677,1.1625,1.1625,1.156,1.1559,0,0,0,0,0,0,0,0,0,0,0,1.1693,1.1693,1.1678,1.1677,1.1625,1.1625,1.156,1.1559,0,0,0,0,0,0,0,0,0,0,0,1.1694,1.1693,1.1692,1.1677,1.1625,1.1625,1.156,1.1599,0,0,0,0,0,0,0,0,0,0,1.1648,1.1663,1.1693,1.1692,1.1676,1.1626,1.1625,1.16,1.1596,1.1583,0,1.1572,0,1.1565,1.1555,1.1555,0,0,0,1.1676,1.1666,1.1653,1.1692,1.1676,1.1626,1.1648,1.1598,1.1593,1.1577,1.1571,1.1568,1.1564,1.1554,1.1554,1.1483,1.1483,0,0,1.1679,1.1684,1.1656,1.1649,1.1658,1.165,1.1647,1.1595,1.1588,1.1571,1.1567,1.1562,1.1554,1.1553,1.1483,1.1483,0,0,0,1.1688,1.1686,1.1673,1.1652,1.1643,1.1649,1.1645,1.159,1.1586,1.1566,1.1562,1.1554,1.1553,1.1483,1.1483,1.1472,0,0,0,1.1689,1.1691,1.1675,1.1677,1.1644,1.1616,1.1641,1.1589,1.1583,1.1562,1.1554,1.1552,1.1484,1.1483,1.1473,1.1466,0,0,0,1.1697,1.1692,1.1684,1.1677,1.1656,1.1617,1.1609,1.1588,1.1581,1.1554,1.1552,1.1484,1.1483,1.1474,1.1468,1.1449,0,0,0,1.1705,1.1675,1.1684,1.1649,1.1656,1.1611,1.161,1.1576,1.1552,1.1553,1.1484,1.1483,1.1475,1.1468,1.145,1.1434,1.1428,0,0,1.1669,1.167,1.1649,1.1656,1.1611,1.1619,1.1572,1.1545,1.1537,1.1501,1.15,1.1473,1.1468,1.1449,1.1393,1.1389,0,0,0,1.1639,1.1624,1.1611,1.1589,1.1569,1.1552,1.1532,1.1523,1.1492,1.152,1.1462,1.1458,1.1447,1.1439,1.1435,1.1425,1.148,1.148,1.148,1.1593,1.1587,1.1552,1.154,1.152,1.1501,1.1484,1.1468,1.1466,1.1453,1.1442,1.1409,1.1399,1.1396,1.1386,1.1433,1.1433,1.1433,1.1433,1.1539,1.1517,1.1518,1.1484,1.1479,1.145,1.1432,1.1432,1.1405,1.1416,1.1406,1.1418,1.1391,1.1382,1.1432,1.1433,1.1433,1.1433,1.1433,1.1508,1.1496,1.1486,1.1456,1.1434,1.1424,1.1398,1.1393,1.1389,1.1379,1.1367,1.1367,1.1366,1.1374,1.1374,1.1374,1.1373,1.1373,1.1373,1.1478,1.1468,1.1447,1.1425,1.1412,1.1394,1.1377,1.1364,1.1348,1.1347,1.1347,1.1347,1.139,1.1401,1.1371,1.1372,1.1372,1.1372,1.1372,1.1424,1.1436,1.1404,1.1391,1.1366,1.1345,1.1341,1.1314,1.1303,1.1291,1.1294,1.1327,1.1327,1.1331,1.1339,1.1296,1.1296,1.1296,1.1296,1.1396,1.1397,1.1364,1.1344,1.1324,1.1318,1.1282,1.127,1.1258,1.1251,1.1257,1.1269,1.1272,1.127,1.1275,1.1283,1.1226,1.1226,1.1226,1.1363,1.1362,1.1332,1.1322,1.1304,1.1288,1.1254,1.1231,1.1221,1.1223,1.1245,1.1248,1.1267,1.1273,1.1274,1.1281,1.1295,0,0]}]]